AirNav   BOSE ProFlight Aviation Headset
 
 533 users online  

0E9 Corydon Airport
Corydon, Iowa, USA

GOING TO CORYDON?


FAA INFORMATION EFFECTIVE 24 MAY 2018

Location

FAA Identifier: 0E9
Lat/Long: 40-45-22.4200N / 093-14-25.2100W
40-45.373667N / 093-14.420167W
40.7562278 / -93.2403361
(estimated)
Elevation: 1045 ft. / 319 m (estimated)
Variation: 04E (1980)
From city: 4 miles E of CORYDON, IA
Time zone: UTC -5 (UTC -6 during Standard Time)
Zip code: 50060

Airport Operations

Airport use: Open to the public
Activation date: 10/1986
Control tower: no
ARTCC: CHICAGO CENTER
FSS: FORT DODGE FLIGHT SERVICE STATION
NOTAMs facility: FOD (NOTAM-D service available)
Attendance: SR-SS
Wind indicator: yes
Segmented circle: no

Airport Communications

CTAF/UNICOM: 122.8
WX AWOS-3 at TVK (16 nm E): 123.775 (641-437-1213)
WX AWOS-3 at CNC (17 nm N): 125.525 (641-774-5645)

Nearby radio navigation aids

VOR radial/distance  VOR name  Freq  Var
LMNr067/34.4LAMONI VOR/DME116.7007E

 
NDB name  Hdg/Dist  Freq  Var  ID
BLOOMFIELD269/36.826902EBEX -... . -..-

Airport Services

Fuel available: MOGAS

Runway Information

Runway 9/27

Dimensions: 3270 x 80 ft. / 997 x 24 m
Surface: turf, in fair condition
Runway edge markings: 09/27 ENDS & DSPLCD THLD MARKED WITH YELLOW CONES; TWO OUTBOARD CONES EACH SIDE OF RY MARK DSPLCD THLD.
Gradient: W
RUNWAY 9  RUNWAY 27
Latitude: 40-45.268000N40-45.299500N
Longitude: 093-14.901833W093-14.194667W
Elevation: 1045.0 ft.1028.0 ft.
Gradient: 0.5% UP
Traffic pattern: leftleft
Displaced threshold: 1080 ft.no
Obstructions: 62 ft. tree, 550 ft. from runway, 80 ft. right of centerline, 8:1 slope to clear
APCH SLOPE 26:1 TO DSPLCD THLD.
4 ft. road, 120 ft. from runway, 30:1 slope to clear

Runway 11W/29W

Dimensions: 3000 x 100 ft. / 914 x 30 m
Surface: water
RUNWAY 11W  RUNWAY 29W
Latitude: 40-45.568902N40-45.375638N
Longitude: 093-14.577853W093-13.979725W
Elevation: 1009.0 ft.1002.0 ft.
Traffic pattern: leftleft
Runway heading: 109 magnetic, 113 true289 magnetic, 293 true

Airport Ownership and Management from official FAA records

Ownership: Privately-owned
Owner: BENNY DAVIS
RT 2
CORYDON, IA 50060
Phone 515-872-2032
Manager: BENNY DAVIS
RT 2
CORYDON, IA 50060
Phone 515-872-2032

Airport Operational Statistics

Aircraft based on the field: 3
Single engine airplanes: 3
    

Additional Remarks

RY 09 HAS TALL GRASS & WEEDS HIDING DSPLCD THLD MARKER CONES.

Instrument Procedures

There are no published instrument procedures at 0E9.

Some nearby airports with instrument procedures:

KTVK - Centerville Municipal Airport (16 nm E)
KCNC - Chariton Municipal Airport (17 nm N)
4C8 - Albia Municipal Airport (26 nm NE)
I75 - Osceola Municipal Airport (27 nm NW)
KLWD - Lamoni Municipal Airport (31 nm W)
 
Loc | Ops | Rwys | IFR | FBO | Links
Com | Nav | Svcs | Stats | Notes

AirNav Hotels Sweepstakes
 
Area around 0E9 (Corydon Airport)
 
Road maps at: MapQuest Bing Google
 
Aerial photo
No photo
 
Sectional chart

 
Airport distance calculator
Flying to Corydon Airport? Find the distance to fly.

From to 0E9

Sunrise and sunset
Times for 18-Jun-2018
 Local
(UTC-5)
 Zulu
(UTC)
Morning civil twilight05:0910:09
Sunrise05:4210:42
Sunset20:4601:46
Evening civil twilight21:1902:19

Current date and time
Zulu (UTC)  19-Jun-2018 04:58:24
Local (UTC-5)  18-Jun-2018 23:58:24
 
METAR
KTVK 
16nm E 
190435Z AUTO 00000KT 10SM 26/23 A2997 RMK AO2
KCNC 
17nm N 
190455Z AUTO 05005KT 8SM SCT042 BKN060 BKN075 23/22 A2997 RMK AO2
KI75 
27nm NW 
190435Z AUTO 08003KT 10SM SCT047 24/22 A2998 RMK AO2 T02360215
KLWD 
31nm W 
190453Z AUTO 23004KT 10SM CLR 27/22 A2996 RMK AO2 SLP135 T02670217
TAF
KOTM 
41nm NE 
190350Z 1904/1924 24014KT P6SM VCSH SCT050 BKN090 TEMPO 1904/1906 5SM -SHRA BKN050 FM190600 20005KT P6SM VCTS FEW045CB SCT100 FM190900 21005KT P6SM VCSH BKN100 FM191500 23007KT P6SM VCTS BKN045CB FM191900 20006KT P6SM VCSH OVC060 FM192200 11005KT P6SM VCTS SCT040CB OVC060
NOTAMs
Click for the latest NOTAMs
NOTAMs are issued by the DoD/FAA and will open in a separate window not controlled by AirNav.

 

 
 

Aviation Businesses, Services, and Facilities

  
 Business Name 
 
 Contact 
 
 Services / Description 
 
Distance
 
Comments
  
Corydon Airport 641-872-2032
no information available

If you are affiliated with Corydon Airport and would like to show here your services, contact info, web link, logo, and more, click here
on airport  
   write
 

Would you like to see your business listed on this page?

 If your business provides an interesting product or service to pilots, flight crews, aircraft, or users of the Corydon Airport, you should consider listing it here.  To start the listing process, click on the button below
 
Add a business
 

Other Pages about Corydon Airport

Page from the Iowa Airport Directory
 
Update a link
 
Copyright © AirNav, LLC. All rights reserved. Privacy Policy  Contact